Simultaneous Nadir Overpasses (SNOs) Predictions

Prediction of SNOs between AQUA and METOP-B Satellite Orbit:

Table of predicted SNOs for the next 14.0 days since TLE Epoch: 4/10/2015
Index Date (AQUA) Time (AQUA) Lat,Lon (AQUA) SZA (AQUA ) Date (METOP-B) Time (METOP-B) Lat,Lon (METOP-B) SZA (METOP-B ) Distance(km) Time Diff (sec)
1 04/12/2015 03:47:19 -73.72, -62.12 114.84 04/12/2015 03:46:10 -73.73, -62.09 114.81 2.14 69
2 04/12/2015 04:36:48 73.79, 105.34 65.24 04/12/2015 04:36:48 73.80, 105.41 65.24 2.24 0
3 04/12/2015 05:26:15 -73.86, -87.17 114.71 04/12/2015 05:27:28 -73.91, -87.01 114.67 7.26 73
4 04/14/2015 23:21:37 -73.73, 4.27 115.85 04/14/2015 23:20:33 -73.73, 4.30 115.84 1.38 64
5 04/15/2015 00:11:05 73.77, 171.83 64.18 04/15/2015 00:11:11 73.79, 171.79 64.21 3.13 6
6 04/15/2015 01:00:37 -74.09, -21.25 115.49 04/15/2015 01:01:48 -74.05, -20.25 115.57 30.65 71
7 04/17/2015 18:55:53 -73.74, 70.68 116.84 04/17/2015 18:54:55 -73.71, 70.67 116.86 3.06 58
8 04/17/2015 19:45:21 73.78,-121.76 63.19 04/17/2015 19:45:33 73.78,-121.84 63.19 2.51 12
9 04/17/2015 20:34:57 -74.30, 44.69 116.27 04/17/2015 20:36:05 -74.28, 46.73 116.35 61.56 68
10 04/20/2015 14:30:09 -73.73, 137.13 117.83 04/20/2015 14:29:17 -73.74, 137.15 117.82 1.00 52
11 04/20/2015 15:19:37 73.78, -55.32 62.21 04/20/2015 15:19:55 73.80, -55.37 62.23 3.11 18
12 04/20/2015 16:09:18 -74.55, 110.52 116.98 04/20/2015 16:10:23 -74.50, 113.72 117.12 94.87 65
13 04/23/2015 10:04:25 -73.76,-156.50 118.75 04/23/2015 10:03:39 -73.76,-156.40 118.75 3.26 46
14 04/23/2015 10:53:53 73.81, 11.03 61.29 04/23/2015 10:54:17 73.82, 11.08 61.29 1.67 24




NCC Satellite Simultaneous Nadir Overpasses (SNOs) Prediction Service
